[[{"header":{"parameterUnit":"m.s-1","parameterCategory":1,"la1":30.2992,"la2":30.254,"lo1":-89.0895,"lo2":-89.0443,"dy":0.0025,"dx":0.0025,"nx":19,"ny":19,"refTime":"2026-05-19T09:00:00:Z","depth":0,"parameterNumber":2,"parameterNumberName":"U-component_of_WINDS"},"data":[0,0,0,-1.9292,-1.9291,-1.9221,-1.9221,-1.9148,-1.9148,0,0,0,0,0,0,0,0,0,0,0,-1.9325,-1.9325,-1.9293,-1.9291,-1.9221,-1.9221,-1.9148,-1.9148,0,0,0,0,0,0,0,0,0,0,0,-1.9325,-1.9325,-1.9325,-1.9291,-1.9221,-1.922,-1.9149,-1.9195,0,0,0,0,0,0,0,0,0,0,-1.926,-1.9301,-1.9325,-1.9325,-1.9291,-1.9221,-1.922,-1.9197,-1.9192,-1.9188,0,-1.9188,0,-1.9167,-1.9144,-1.9144,0,0,0,-1.9282,-1.9305,-1.9276,-1.9325,-1.929,-1.9221,-1.925,-1.9194,-1.9189,-1.9182,-1.9187,-1.9184,-1.9166,-1.9144,-1.9144,-1.9154,-1.9155,0,0,-1.9286,-1.9318,-1.928,-1.9274,-1.9287,-1.9252,-1.9248,-1.919,-1.9198,-1.9187,-1.9182,-1.9165,-1.9144,-1.9143,-1.9154,-1.9154,0,0,0,-1.9303,-1.9321,-1.9293,-1.9277,-1.9263,-1.9251,-1.9245,-1.92,-1.9189,-1.9181,-1.9164,-1.9143,-1.9143,-1.9153,-1.9154,-1.9208,0,0,0,-1.9305,-1.9331,-1.9295,-1.9314,-1.9265,-1.9231,-1.9257,-1.9193,-1.9185,-1.9164,-1.9143,-1.9142,-1.9152,-1.9153,-1.9205,-1.9227,0,0,0,-1.9325,-1.9333,-1.9327,-1.9316,-1.9287,-1.9231,-1.9216,-1.919,-1.9175,-1.9144,-1.9142,-1.9152,-1.9153,-1.9203,-1.9223,-1.9239,0,0,0,-1.9356,-1.9375,-1.9329,-1.9344,-1.9288,-1.9266,-1.9216,-1.9198,-1.9178,-1.9143,-1.9152,-1.9154,-1.9202,-1.9221,-1.9237,-1.9257,-1.9269,0,0,-1.9398,-1.9381,-1.9388,-1.9344,-1.934,-1.9274,-1.9277,-1.9227,-1.9195,-1.9169,-1.9169,-1.9206,-1.9223,-1.9239,-1.9328,-1.9338,0,0,0,-1.9412,-1.9417,-1.9409,-1.9392,-1.9357,-1.9328,-1.9275,-1.9257,-1.9234,-1.9189,-1.9216,-1.9225,-1.9233,-1.9241,-1.9249,-1.9254,-1.9159,-1.9159,-1.9159,-1.9515,-1.9474,-1.9483,-1.9434,-1.9419,-1.9366,-1.935,-1.9316,-1.9278,-1.9286,-1.9277,-1.9336,-1.9347,-1.9353,-1.9358,-1.9286,-1.9286,-1.9286,-1.9286,-1.9571,-1.9572,-1.9524,-1.9515,-1.9472,-1.9463,-1.9414,-1.9388,-1.9373,-1.9339,-1.9344,-1.9307,-1.9365,-1.9367,-1.929,-1.9289,-1.9289,-1.9289,-1.9288,-1.9633,-1.9626,-1.9606,-1.9579,-1.9563,-1.9514,-1.9503,-1.9464,-1.9427,-1.9432,-1.9419,-1.9418,-1.9411,-1.9429,-1.943,-1.943,-1.943,-1.943,-1.943,-1.9703,-1.9679,-1.9675,-1.9641,-1.9627,-1.9602,-1.9552,-1.9536,-1.9509,-1.9481,-1.9481,-1.9442,-1.9379,-1.9363,-1.9433,-1.9433,-1.9432,-1.9432,-1.9432,-1.9772,-1.9751,-1.9745,-1.9731,-1.9689,-1.9676,-1.9629,-1.96,-1.9582,-1.9578,-1.9539,-1.95,-1.9479,-1.9472,-1.9459,-1.9549,-1.9549,-1.9549,-1.9549,-1.9822,-1.981,-1.9795,-1.9775,-1.9751,-1.9709,-1.9703,-1.9665,-1.9623,-1.9609,-1.9591,-1.957,-1.9565,-1.9547,-1.9539,-1.9525,-1.9631,-1.9631,-1.9631,-1.9862,-1.9846,-1.9848,-1.9808,-1.9773,-1.9744,-1.9738,-1.9716,-1.9664,-1.9633,-1.9597,-1.9593,-1.956,-1.9552,-1.9517,-1.9505,-1.9479,0,0]},{"header":{"parameterUnit":"m.s-1","parameterCategory":1,"la1":30.2992,"la2":30.254,"lo1":-89.0895,"lo2":-89.0443,"dy":0.0025,"dx":0.0025,"nx":19,"ny":19,"refTime":"2026-05-19T09:00:00:Z","depth":0,"parameterNumber":3,"parameterNumberName":"V-component_of_WINDS"},"data":[0,0,0,2.1367,2.1366,2.1313,2.1313,2.1236,2.1235,0,0,0,0,0,0,0,0,0,0,0,2.1377,2.1376,2.1367,2.1366,2.1313,2.1313,2.1236,2.1235,0,0,0,0,0,0,0,0,0,0,0,2.1377,2.1376,2.1375,2.1365,2.1313,2.1313,2.1236,2.1279,0,0,0,0,0,0,0,0,0,0,2.1332,2.1335,2.1377,2.1375,2.1365,2.1313,2.1313,2.1281,2.1276,2.1255,0,2.1236,0,2.1234,2.1229,2.1229,0,0,0,2.1369,2.1339,2.1331,2.1375,2.1364,2.1313,2.1338,2.1278,2.1273,2.1249,2.1235,2.1232,2.1233,2.1228,2.1228,2.1099,2.1099,0,0,2.1372,2.1364,2.1334,2.1327,2.1335,2.1339,2.1336,2.1275,2.1259,2.1235,2.1231,2.1232,2.1228,2.1227,2.11,2.1099,0,0,0,2.1378,2.1366,2.1359,2.133,2.1321,2.1338,2.1334,2.1262,2.126,2.123,2.1231,2.1227,2.1226,2.1101,2.11,2.1055,0,0,0,2.138,2.1369,2.136,2.1354,2.1322,2.1291,2.1322,2.1265,2.1258,2.1231,2.1227,2.1226,2.1102,2.11,2.1058,2.1035,0,0,0,2.1382,2.137,2.136,2.1354,2.1331,2.1292,2.1287,2.1263,2.1258,2.1229,2.1225,2.1102,2.1101,2.1061,2.1039,2.1,0,0,0,2.1382,2.1319,2.1359,2.129,2.1332,2.1265,2.1288,2.1238,2.1207,2.1227,2.1102,2.11,2.1062,2.1042,2.1003,2.0966,2.0949,0,0,2.1298,2.1308,2.1268,2.1303,2.1228,2.1274,2.1192,2.117,2.1174,2.1124,2.1121,2.1057,2.104,2.1001,2.086,2.0847,0,0,0,2.1239,2.121,2.1192,2.1164,2.1148,2.1132,2.1125,2.1117,2.1076,2.1147,2.1032,2.1022,2.0999,2.0982,2.0971,2.0953,2.1091,2.1092,2.1092,2.1107,2.1118,2.1053,2.1058,2.1031,2.1026,2.1004,2.0993,2.1009,2.0983,2.0968,2.0882,2.0861,2.0853,2.0834,2.0949,2.0949,2.0948,2.0948,2.0986,2.0947,2.0975,2.0922,2.0934,2.0889,2.0882,2.0896,2.0856,2.0893,2.0873,2.0913,2.0838,2.0822,2.0945,2.0946,2.0946,2.0946,2.0947,2.0901,2.0884,2.0879,2.0841,2.0811,2.0819,2.078,2.0792,2.0802,2.0783,2.077,2.077,2.0773,2.0776,2.0776,2.0775,2.0775,2.0775,2.0775,2.0815,2.081,2.0777,2.0757,2.0743,2.0725,2.0721,2.0706,2.0693,2.0705,2.0705,2.0725,2.0829,2.0855,2.077,2.0771,2.0772,2.0772,2.0772,2.0688,2.0719,2.0668,2.0654,2.0634,2.0604,2.0621,2.0591,2.0581,2.0562,2.0587,2.0662,2.0673,2.0682,2.0704,2.0584,2.0584,2.0584,2.0584,2.0616,2.0624,2.0577,2.0553,2.0531,2.0542,2.0485,2.0483,2.0485,2.048,2.0499,2.0529,2.0538,2.0543,2.0555,2.0576,2.0427,2.0427,2.0426,2.0539,2.0547,2.0495,2.05,2.0486,2.0474,2.0421,2.0393,2.0402,2.042,2.0476,2.0483,2.0532,2.0547,2.0565,2.0583,2.0621,0,0]}]]